Location: Bridgewater
(44.3670°N, 64.5170°W)
Time: 22:42:04
(UTC-03:00)

Amateur Radio Satellites - All Passes

Search period start: 31 July 2014 22:12
Search period end: 01 August 2014 22:12
Location: Bridgewater, 44.3670°N, 64.5170°W

Satellite Date Start Highest point End Downlink Frequencies (MHz)
Time Altitude Azimuth
UKube-1 31 Jul 22:16:39 22:20:48 42° 261° (W) 22:24:58 145.840 MHz, 145.915 MHz
Oscar 11 31 Jul 22:59:02 23:02:50 30° 264° (W) 23:06:39 145.825 FM, Beacon 2401.500 USB
MaSat-1 31 Jul 23:03:56 23:06:54 17° 318° (NW) 23:10:04 437.345 MHz
ISS 31 Jul 23:06:32 23:09:42 41° 142° (SE) 23:12:53 145.800 FM
UOSAT-12 31 Jul 23:22:19 23:26:59 59° 239° (WSW) 23:31:34 437.025 FM, 437.400 FM
FUNcube-1 31 Jul 23:28:41 23:32:41 37° 262° (W) 23:36:37 145.950 - 145.970 MHz USB
HO-68 31 Jul 23:43:44 23:45:24 11° 275° (W) 23:47:03 435.675 MHz FM
AO-40 31 Jul 23:47:48 05:12:58 36° 182° (S) 11:30:16 Beacon 2401.320
RS-15 01 Aug 00:01:43 00:11:44 42° 251° (WSW) 00:22:08 29.354 - 29.394 USB, Beacon 29.352 USB
Sapphire 01 Aug 00:15:43 00:20:37 37° 112° (ESE) 00:25:33 437.095 MHz 1200 baud AX-25 AFSK
ISS 01 Aug 00:43:18 00:46:27 37° 340° (NNW) 00:49:37 145.800 FM
PCSat 01 Aug 00:48:12 00:53:34 73° 118° (ESE) 00:59:00 145.825 MHz
Sapphire 01 Aug 01:59:01 02:04:01 38° 311° (NW) 02:09:04 437.095 MHz 1200 baud AX-25 AFSK
AO-Echo 01 Aug 02:08:16 02:10:01 12° 87° (E) 02:11:44 ?
Oscar 19 01 Aug 02:14:26 02:18:58 30° 95° (E) 02:23:29 437.125 CW, 437.150 USB
ISS 01 Aug 02:21:03 02:23:48 23° 360° (N) 02:26:32 145.800 FM
PCSat 01 Aug 02:33:20 02:37:33 23° 318° (NW) 02:41:48 145.825 MHz
Oscar 10/S400 01 Aug 02:38:26 03:25:36 56° 196° (SSW) 11:23:22 145.825 - 145.975 CW/USB, Beacon 145.810 USB
OPAL 01 Aug 02:41:07 02:42:42 12° 53° (NE) 02:44:18 ?
Oscar 16 01 Aug 02:43:02 02:48:08 56° 101° (E) 02:53:13 437.025 USB, Beacon 2401.1428
ITAMSAT 1 01 Aug 03:10:41 03:15:38 44° 99° (E) 03:20:33 435.822 SSB
Uribyol 2 01 Aug 03:29:11 03:34:21 70° 103° (ESE) 03:39:29 436.500 FM
AO-27 01 Aug 03:30:39 03:35:50 69° 102° (ESE) 03:40:59 436.795 MHz FM
JAS-1B 01 Aug 03:31:19 03:40:20 52° 96° (E) 03:47:58 435.800 - 435.900 CW/SSB
AO-Echo 01 Aug 03:44:26 03:49:30 84° 285° (WNW) 03:54:23 ?
TMSAT-1 01 Aug 03:45:05 03:49:42 30° 95° (E) 03:54:18 436.925 FM
Sapphire 01 Aug 03:48:26 03:49:06 10° 334° (NNW) 03:49:46 437.095 MHz 1200 baud AX-25 AFSK
Oscar 19 01 Aug 03:53:38 03:58:21 37° 293° (WNW) 04:03:04 437.125 CW, 437.150 USB
ISS 01 Aug 03:57:58 04:01:08 37° 20° (NNE) 04:04:18 145.800 FM
Gurwin Techsat 1B 01 Aug 04:11:11 04:16:30 69° 102° (ESE) 04:21:46 435.225 FM
OPAL 01 Aug 04:15:49 04:20:45 77° 71° (ENE) 04:25:44 ?
Oscar 16 01 Aug 04:23:17 04:27:05 21° 298° (WNW) 04:30:53 437.025 USB, Beacon 2401.1428
AO-7 01 Aug 04:36:36 04:43:17 26° 93° (E) 04:49:53 29.400 - 29.500 MHz
ITAMSAT 1 01 Aug 04:50:41 04:54:54 26° 297° (WNW) 04:59:05 435.822 SSB
Uribyol 2 01 Aug 05:09:57 05:13:16 18° 301° (WNW) 05:16:35 436.500 FM
AO-27 01 Aug 05:11:25 05:14:48 18° 301° (WNW) 05:18:10 436.795 MHz FM
JAS-1B 01 Aug 05:22:00 05:30:36 43° 299° (WNW) 05:38:05 435.800 - 435.900 CW/SSB
KITSAT 1 01 Aug 05:22:36 05:29:33 33° 108° (ESE) 05:36:32 435.175 FM
TMSAT-1 01 Aug 05:24:49 05:29:41 38° 293° (WNW) 05:34:32 436.925 FM
AO-Echo 01 Aug 05:25:30 05:27:25 12° 304° (NW) 05:29:19 ?
ISS 01 Aug 05:34:41 05:37:54 43° 218° (SW) 05:41:06 145.800 FM
MaSat-1 01 Aug 05:41:21 05:46:15 36° 53° (NE) 05:50:55 437.345 MHz
Uosat F 01 Aug 05:44:09 05:49:12 82° 104° (ESE) 05:54:12 435.120 FM
Gurwin Techsat 1B 01 Aug 05:52:23 05:55:55 18° 300° (WNW) 05:59:26 435.225 FM
OPAL 01 Aug 05:57:53 06:00:13 13° 269° (W) 06:02:33 ?
Saudisat 1A 01 Aug 06:28:25 06:31:20 17° 111° (ESE) 06:34:15 436.775 MHz
AO-7 01 Aug 06:28:29 06:36:47 74° 292° (WNW) 06:45:02 29.400 - 29.500 MHz
STRAND 1 01 Aug 06:44:25 06:49:23 52° 70° (ENE) 06:54:23 ?
JAS-2 01 Aug 07:00:31 07:05:48 35° 95° (E) 07:10:39 435.800 - 435.900 CW/SSB, 435.910 FM
JAS-1B 01 Aug 07:15:23 07:18:25 12° 323° (NW) 07:21:21 435.800 - 435.900 CW/SSB
KITSAT 1 01 Aug 07:16:28 07:24:29 63° 308° (NW) 07:32:33 435.175 FM
MaSat-1 01 Aug 07:18:46 07:23:34 36° 253° (WSW) 07:28:03 437.345 MHz
Sapphire 01 Aug 07:20:09 07:21:55 11° 29° (NNE) 07:23:41 437.095 MHz 1200 baud AX-25 AFSK
Uosat F 01 Aug 07:24:39 07:27:19 15° 302° (WNW) 07:29:59 435.120 FM
Hamsat 01 Aug 07:32:37 07:36:58 81° 284° (WNW) 07:41:18 145.90 MHz
PCSat 01 Aug 07:52:08 07:55:46 18° 37° (NE) 07:59:23 145.825 MHz
Saudisat 1A 01 Aug 08:06:08 08:10:29 58° 309° (NW) 08:14:53 436.775 MHz
AO-7 01 Aug 08:22:47 08:28:14 20° 314° (NW) 08:33:40 29.400 - 29.500 MHz
STRAND 1 01 Aug 08:25:03 08:28:52 21° 268° (W) 08:32:43 ?
JAS-2 01 Aug 08:45:40 08:50:53 34° 296° (WNW) 08:55:40 435.800 - 435.900 CW/SSB, 435.910 FM
SO-67 01 Aug 08:49:07 08:52:34 59° 285° (WNW) 08:55:59 435.3500 MHz FM
Sapphire 01 Aug 09:01:38 09:06:50 44° 51° (NE) 09:11:59 437.095 MHz 1200 baud AX-25 AFSK
KITSAT 1 01 Aug 09:15:35 09:21:39 22° 333° (NNW) 09:27:44 435.175 FM
HO-68 01 Aug 09:16:04 09:21:26 22° 91° (E) 09:26:46 435.675 MHz FM
PCSat 01 Aug 09:34:35 09:40:04 81° 58° (ENE) 09:45:29 145.825 MHz
Saudisat 1A 01 Aug 09:49:07 09:51:01 12° 329° (NNW) 09:52:56 436.775 MHz
UKube-1 01 Aug 10:03:28 10:07:13 28° 96° (E) 10:10:57 145.840 MHz, 145.915 MHz
Oscar 11 01 Aug 10:44:28 10:48:36 42° 98° (E) 10:52:43 145.825 FM, Beacon 2401.500 USB
Sapphire 01 Aug 10:45:23 10:50:05 31° 250° (WSW) 10:54:46 437.095 MHz 1200 baud AX-25 AFSK
HO-68 01 Aug 11:02:39 11:09:48 74° 290° (WNW) 11:16:53 435.675 MHz FM
FUNcube-1 01 Aug 11:15:55 11:19:45 33° 97° (E) 11:23:36 145.950 - 145.970 MHz USB
KITSAT 1 01 Aug 11:16:15 11:20:42 15° 4° (N) 11:25:08 435.175 FM
PCSat 01 Aug 11:19:44 11:22:45 15° 256° (WSW) 11:25:46 145.825 MHz
UKube-1 01 Aug 11:39:37 11:43:24 29° 293° (WNW) 11:47:09 145.840 MHz, 145.915 MHz
SO-50 01 Aug 11:54:39 11:58:43 36° 116° (ESE) 12:02:53 436.795 FM
RS-15 01 Aug 12:16:25 12:25:28 30° 105° (ESE) 12:34:20 29.354 - 29.394 USB, Beacon 29.352 USB
Oscar 11 01 Aug 12:21:20 12:24:31 20° 295° (WNW) 12:27:43 145.825 FM, Beacon 2401.500 USB
Oscar 16 01 Aug 12:25:33 12:28:10 14° 58° (ENE) 12:30:47 437.025 USB, Beacon 2401.1428
JAS-1B 01 Aug 12:30:31 12:35:39 16° 42° (NE) 12:40:51 435.800 - 435.900 CW/SSB
HO-68 01 Aug 12:52:10 12:56:20 17° 310° (NW) 13:00:29 435.675 MHz FM
FUNcube-1 01 Aug 12:52:42 12:56:00 23° 293° (WNW) 12:59:20 145.950 - 145.970 MHz USB
ITAMSAT 1 01 Aug 12:54:45 12:56:47 12° 56° (NE) 12:58:49 435.822 SSB
Uribyol 2 01 Aug 13:11:35 13:15:01 18° 60° (ENE) 13:18:27 436.500 FM
KITSAT 1 01 Aug 13:12:42 13:19:25 27° 33° (NNE) 13:26:06 435.175 FM
AO-27 01 Aug 13:13:16 13:16:44 18° 60° (ENE) 13:20:12 436.795 MHz FM
AO-Echo 01 Aug 13:21:27 13:25:25 22° 62° (ENE) 13:29:21 ?
Oscar 19 01 Aug 13:32:51 13:37:46 50° 70° (ENE) 13:42:44 437.125 CW, 437.150 USB
SO-50 01 Aug 13:35:17 13:39:19 32° 316° (NW) 13:43:26 436.795 FM
UOSAT-12 01 Aug 13:35:22 13:39:18 29° 114° (ESE) 13:43:19 437.025 FM, 437.400 FM
AO-7 01 Aug 13:51:53 13:54:11 11° 37° (NE) 13:56:29 29.400 - 29.500 MHz
Gurwin Techsat 1B 01 Aug 13:56:17 13:59:54 19° 60° (ENE) 14:03:31 435.225 FM
Oscar 16 01 Aug 14:01:41 14:06:48 86° 256° (WSW) 14:11:58 437.025 USB, Beacon 2401.1428
JAS-1B 01 Aug 14:14:58 14:23:51 53° 64° (ENE) 14:33:19 435.800 - 435.900 CW/SSB
RS-15 01 Aug 14:25:34 14:36:42 79° 307° (NW) 14:47:42 29.354 - 29.394 USB, Beacon 29.352 USB
ITAMSAT 1 01 Aug 14:30:14 14:35:26 80° 74° (ENE) 14:40:40 435.822 SSB
Uribyol 2 01 Aug 14:48:48 14:53:58 68° 258° (WSW) 14:59:09 436.500 FM
AO-27 01 Aug 14:50:31 14:55:42 68° 258° (WSW) 15:00:56 436.795 MHz FM
Saudisat 1A 01 Aug 14:52:15 14:56:01 26° 43° (NE) 14:59:45 436.775 MHz
AO-Echo 01 Aug 14:58:31 15:03:45 58° 260° (W) 15:09:00 ?
TMSAT-1 01 Aug 15:07:18 15:12:27 54° 71° (ENE) 15:17:37 436.925 FM
KITSAT 1 01 Aug 15:07:53 15:16:02 85° 57° (ENE) 15:24:06 435.175 FM
Oscar 19 01 Aug 15:13:33 15:17:24 21° 268° (W) 15:21:17 437.125 CW, 437.150 USB
UOSAT-12 01 Aug 15:14:57 15:19:19 40° 313° (NW) 15:23:46 437.025 FM, 437.400 FM
Uosat F 01 Aug 15:22:19 15:25:46 19° 61° (ENE) 15:29:14 435.120 FM
Gurwin Techsat 1B 01 Aug 15:34:03 15:39:20 67° 258° (WSW) 15:44:39 435.225 FM
AO-7 01 Aug 15:37:05 15:44:47 43° 60° (ENE) 15:52:29 29.400 - 29.500 MHz
Oscar 16 01 Aug 15:45:49 15:46:55 11° 273° (W) 15:48:01 437.025 USB, Beacon 2401.1428
JAS-1B 01 Aug 16:05:39 16:14:20 46° 265° (W) 16:23:47 435.800 - 435.900 CW/SSB
ITAMSAT 1 01 Aug 16:12:59 16:15:33 14° 271° (W) 16:18:07 435.822 SSB
OPAL 01 Aug 16:25:05 16:28:24 17° 93° (E) 16:31:43 ?
Saudisat 1A 01 Aug 16:31:34 16:35:46 44° 241° (WSW) 16:39:56 436.775 MHz
RS-15 01 Aug 16:41:30 16:51:02 32° 336° (NNW) 17:00:36 29.354 - 29.394 USB, Beacon 29.352 USB
TMSAT-1 01 Aug 16:48:46 16:52:42 21° 268° (W) 16:56:40 436.925 FM
Uosat F 01 Aug 16:59:06 17:04:05 62° 258° (WSW) 17:09:06 435.120 FM
UOSAT-12 01 Aug 16:59:39 17:00:46 11° 335° (NNW) 17:01:54 437.025 FM, 437.400 FM
KITSAT 1 01 Aug 17:04:39 17:10:27 22° 257° (WSW) 17:16:14 435.175 FM
JAS-2 01 Aug 17:13:31 17:19:28 26° 61° (ENE) 17:25:02 435.800 - 435.900 CW/SSB, 435.910 FM
AO-7 01 Aug 17:29:26 17:37:27 49° 259° (W) 17:45:31 29.400 - 29.500 MHz
OPAL 01 Aug 18:02:39 18:07:41 64° 290° (WNW) 18:12:46 ?
Hamsat 01 Aug 18:27:25 18:31:36 87° 77° (ENE) 18:35:51 145.90 MHz
SO-50 01 Aug 18:45:07 18:47:19 13° 30° (NNE) 18:49:31 436.795 FM
STRAND 1 01 Aug 18:54:49 18:57:43 15° 90° (E) 19:00:36 ?
JAS-2 01 Aug 18:56:14 19:03:58 74° 257° (WSW) 19:11:05 435.800 - 435.900 CW/SSB, 435.910 FM
RS-15 01 Aug 18:59:02 19:07:52 27° 11° (N) 19:16:50 29.354 - 29.394 USB, Beacon 29.352 USB
SO-67 01 Aug 19:23:35 19:26:58 54° 74° (ENE) 19:30:23 435.3500 MHz FM
OPAL 01 Aug 19:45:18 19:45:37 10° 308° (NW) 19:45:56 ?
HO-68 01 Aug 19:47:18 19:52:32 23° 54° (NE) 19:57:46 435.675 MHz FM
SO-50 01 Aug 20:24:15 20:28:55 54° 50° (NE) 20:33:38 436.795 FM
UOSAT-12 01 Aug 20:24:34 20:25:55 11° 26° (NNE) 20:27:16 437.025 FM, 437.400 FM
STRAND 1 01 Aug 20:32:20 20:37:26 70° 287° (WNW) 20:42:29 ?
JAS-2 01 Aug 20:46:10 20:49:54 14° 274° (W) 20:53:32 435.800 - 435.900 CW/SSB, 435.910 FM
UKube-1 01 Aug 21:00:35 21:04:26 31° 67° (ENE) 21:08:17 145.840 MHz, 145.915 MHz
MaSat-1 01 Aug 21:10:26 21:14:39 82° 116° (ESE) 21:19:34 437.345 MHz
RS-15 01 Aug 21:12:48 21:23:31 53° 43° (NE) 21:34:31 29.354 - 29.394 USB, Beacon 29.352 USB
HO-68 01 Aug 21:32:15 21:39:26 83° 254° (WSW) 21:46:39 435.675 MHz FM
Oscar 11 01 Aug 21:41:06 21:45:07 40° 70° (ENE) 21:49:10 145.825 FM, Beacon 2401.500 USB
UOSAT-12 01 Aug 22:02:50 22:07:21 42° 47° (NE) 22:11:48 437.025 FM, 437.400 FM
